Volver al catálogo

OSCAR 25

ActivoRadioaficionadoPO
NORAD 19419·PAYLOAD·🇺🇸 United States

Lanzado Aug 25, 1988 desde Vandenberg Space Force Base

Loading…

Próximos Pases (próximas 24 horas)

TLE

ActualizadoSource: Space-Track

Época: Sep 14, 2026, 07:51 UTC

1 19419U 88074A   26257.32728641  .00000075  00000-0  11303-3 0  9999
2 19419  90.0488  21.3262 0096384 178.9087 209.6451 13.42669720863386

Sigue OSCAR 25 en tiempo real con AllMySat

Download on the App Store